TimeMST,TemperatureF,Dew PointF,Humidity,Sea Level PressureIn,VisibilityMPH,Wind Direction,Wind SpeedMPH,Gust SpeedMPH,PrecipitationIn,Events,Conditions,WindDirDegrees,DateUTC
12:55 AM,62.6,28.4,27,29.92,10.0,West,4.6,-,N/A,,Mostly Cloudy,260,2012-11-08 07:55:00
1:55 AM,60.8,28.4,29,29.91,10.0,South,4.6,-,N/A,,Mostly Cloudy,180,2012-11-08 08:55:00
2:55 AM,60.8,28.4,29,29.90,10.0,South,4.6,-,N/A,,Mostly Cloudy,170,2012-11-08 09:55:00
3:55 AM,62.6,28.4,27,29.89,10.0,South,3.5,-,N/A,,Mostly Cloudy,170,2012-11-08 10:55:00
4:55 AM,59.0,28.4,31,29.91,10.0,West,10.4,-,N/A,,Mostly Cloudy,270,2012-11-08 11:55:00
5:55 AM,57.2,28.4,33,30.07,10.0,West,4.6,-,N/A,,Mostly Cloudy,260,2012-11-08 12:55:00
6:55 AM,57.2,28.4,33,29.94,10.0,Calm,Calm,-,N/A,,Overcast,0,2012-11-08 13:55:00
7:55 AM,60.8,28.4,29,29.95,10.0,Calm,Calm,-,N/A,,Mostly Cloudy,0,2012-11-08 14:55:00
8:55 AM,62.6,28.4,27,29.97,10.0,South,4.6,-,N/A,,Mostly Cloudy,180,2012-11-08 15:55:00
9:55 AM,69.8,24.8,18,29.96,10.0,West,13.8,-,N/A,,Mostly Cloudy,270,2012-11-08 16:55:00
10:55 AM,71.6,28.4,20,29.95,10.0,West,12.7,-,N/A,,Mostly Cloudy,260,2012-11-08 17:55:00
11:55 AM,73.4,28.4,19,29.93,10.0,WSW,12.7,17.3,N/A,,Mostly Cloudy,240,2012-11-08 18:55:00
12:55 PM,75.2,24.8,15,29.89,10.0,WSW,11.5,-,N/A,,Scattered Clouds,240,2012-11-08 19:55:00
1:55 PM,77.0,26.6,16,29.87,10.0,WNW,16.1,23.0,N/A,,Mostly Cloudy,290,2012-11-08 20:55:00
2:55 PM,75.2,28.4,18,29.88,10.0,WSW,12.7,-,N/A,,Mostly Cloudy,250,2012-11-08 21:55:00
3:55 PM,71.6,32.0,23,29.89,10.0,SW,20.7,26.5,N/A,,Mostly Cloudy,220,2012-11-08 22:55:00
4:55 PM,68.0,35.6,30,29.91,10.0,SSW,11.5,-,N/A,,Mostly Cloudy,210,2012-11-08 23:55:00
5:45 PM,68.0,35.6,30,30.05,10.0,SW,13.8,20.7,N/A,Rain,Light Rain,220,2012-11-09 00:45:00
5:55 PM,66.2,35.6,32,29.93,10.0,SW,11.5,-,N/A,,Mostly Cloudy,220,2012-11-09 00:55:00
5:57 PM,66.2,37.4,35,29.95,10.0,West,13.8,-,N/A,,Overcast,260,2012-11-09 00:57:00
6:55 PM,66.2,37.4,35,29.95,10.0,West,13.8,-,N/A,,Overcast,260,2012-11-09 01:55:00
7:55 PM,60.8,39.2,45,29.96,10.0,West,6.9,-,N/A,,Mostly Cloudy,260,2012-11-09 02:55:00
8:22 PM,62.6,39.2,42,30.08,10.0,West,9.2,-,N/A,Rain,Light Rain Showers,260,2012-11-09 03:22:00
8:42 PM,62.6,39.2,42,30.08,10.0,SSW,13.8,-,N/A,,Mostly Cloudy,210,2012-11-09 03:42:00
8:55 PM,62.6,39.2,42,29.95,10.0,SSW,12.7,-,N/A,,Mostly Cloudy,200,2012-11-09 03:55:00
9:06 PM,64.4,39.2,40,30.08,10.0,SSW,23.0,34.5,N/A,Rain,Light Rain Showers,210,2012-11-09 04:06:00
9:29 PM,59.0,44.6,59,30.05,10.0,South,16.1,27.6,N/A,,Mostly Cloudy,180,2012-11-09 04:29:00
9:55 PM,57.2,44.6,63,29.92,10.0,South,6.9,-,N/A,,Mostly Cloudy,190,2012-11-09 04:55:00
10:55 PM,62.6,39.2,42,29.93,10.0,Calm,Calm,-,N/A,,Mostly Cloudy,0,2012-11-09 05:55:00
11:55 PM,62.6,39.2,42,29.91,10.0,SSW,15.0,27.6,N/A,,Mostly Cloudy,200,2012-11-09 06:55:00